Waarnemingen

Advertentie
Mijn weer
Edinburgh/Gogarbank, Groot Brittannië (3166): temperatuur & dauwpunt: 16.10.2020 05:00:00 - 22.10.2020 05:00:00 (BST)Edinburgh/Gogarbank, Groot Brittannië (3166): temperatuur -20cm & temperatuur -100cm: 16.10.2020 05:00:00 - 22.10.2020 05:00:00 (BST)Edinburgh/Gogarbank, Groot Brittannië (3166): windsnelheid & windstoten: 16.10.2020 05:00:00 - 22.10.2020 05:00:00 (BST)Edinburgh/Gogarbank, Groot Brittannië (3166): windrichting: 16.10.2020 05:00:00 - 22.10.2020 05:00:00 (BST)Edinburgh/Gogarbank, Groot Brittannië (3166): luchtdruk: 16.10.2020 05:00:00 - 22.10.2020 05:00:00 (BST)Edinburgh/Gogarbank, Groot Brittannië (3166): zicht: 16.10.2020 05:00:00 - 22.10.2020 05:00:00 (BST)Edinburgh/Gogarbank, Groot Brittannië (3166): Zonneschijnduur: 16.10.2020 05:00:00 - 22.10.2020 05:00:00 (BST)Edinburgh/Gogarbank, Groot Brittannië (3166): neerslag: 16.10.2020 05:00:00 - 22.10.2020 05:00:00 (BST)
Datum & Tijd tt [°C] td [°C] tt -20cm [°C] tt -100cm [°C] ff [km/u] ff [kn] fx [km/u] fx [kn] dd ppp [hPa] vv [km] sd [min] rr [mm]
22.10.2020 05:00:00 8,9 7,8 - - 13 7 - - ZW 994,6 50 0 0,0
22.10.2020 04:00:00 9,0 7,9 - - 8 4 - - WZW 994,8 50 0 0,0
22.10.2020 03:00:00 9,1 7,6 - - 9 5 - - W 994,5 50 0 0,0
22.10.2020 02:00:00 8,4 7,4 - - 4 2 - - WZW 994,3 50 0 0,0
22.10.2020 01:00:00 8,9 7,8 - - 8 4 - - ZW 994,1 50 - 0,0
22.10.2020 00:00:00 8,0 6,3 - - 4 2 - - Z 993,6 50 0 0,0
21.10.2020 23:00:00 10,1 8,8 - - 4 2 - - Z 993,5 45 0 0,0
21.10.2020 22:00:00 10,9 10,5 - - 2 1 - - O 993,1 17 0 0,0
21.10.2020 21:00:00 11,2 10,5 - - 2 1 - - ZZO 992,6 50 0 0,4
21.10.2020 20:00:00 11,9 10,3 - - 4 2 - - WZW 992,4 7 0 0,0
21.10.2020 19:00:00 12,9 9,6 - - 5 3 - - ZW 991,6 50 0 0,0
21.10.2020 18:00:00 13,3 9,5 - - 4 2 - - Z 991,0 50 0 0,0
21.10.2020 17:00:00 14,3 9,6 - - 9 5 - - ZZW 990,5 50 0 0,0
21.10.2020 16:00:00 14,8 9,2 - - 15 8 - - ZZW 990,2 45 6 0,0
21.10.2020 15:00:00 16,5 10,1 - - 9 5 - - Z 990,2 26 42 0,0
21.10.2020 14:00:00 16,3 10,1 - - 11 6 - - ZZW 990,3 40 36 0,0
21.10.2020 13:00:00 16,4 9,1 - - 11 6 - - ZZW 990,5 45 60 0,0
21.10.2020 12:00:00 15,8 9,1 - - 9 5 - - Z 990,7 30 42 0,0
21.10.2020 11:00:00 14,9 9,2 - - 13 7 - - Z 990,7 19 48 0,0
21.10.2020 10:00:00 13,3 8,7 11,0 11,5 9 5 - - Z 991,1 40 6 0,0
21.10.2020 09:00:00 12,5 8,4 - - 5 3 - - ZZW 991,3 40 0 0,0
21.10.2020 08:00:00 12,4 8,7 - - 9 5 - - Z 991,0 25 0 0,0
21.10.2020 07:00:00 12,4 8,9 - - 15 8 - - Z 990,9 30 0 0,0
21.10.2020 06:00:00 11,6 8,9 - - 5 3 - - ZO 990,9 35 0 0,0
21.10.2020 05:00:00 12,3 8,4 - - 9 5 - - Z 991,4 24 0 0,0
21.10.2020 04:00:00 12,4 9,0 - - 11 6 - - Z 991,4 29 0 0,0
21.10.2020 03:00:00 11,8 9,0 - - 5 3 - - ZO 992,0 30 0 0,0
21.10.2020 02:00:00 12,3 8,8 - - 9 5 - - Z 992,5 19 0 0,0
21.10.2020 01:00:00 12,7 8,9 - - 8 4 - - Z 992,7 17 - 0,0
21.10.2020 00:00:00 13,1 9,2 - - 13 7 - - Z 992,4 17 0 0,0
20.10.2020 23:00:00 13,3 9,1 - - 16 9 - - Z 992,4 17 0 0,0
20.10.2020 22:00:00 13,5 8,5 - - 15 8 - - Z 992,3 20 0 0,0
20.10.2020 21:00:00 13,6 9,1 - - 8 4 - - ZZO 992,6 29 0 0,0
20.10.2020 20:00:00 13,3 9,3 - - 9 5 - - Z 992,6 21 0 0,0
20.10.2020 19:00:00 13,1 9,9 - - 8 4 - - ZZO 992,7 20 0 0,2
20.10.2020 18:00:00 13,1 10,1 - - 9 5 - - ZZW 992,6 28 0 0,0
20.10.2020 17:00:00 12,5 11,7 - - 0 0 - - N 992,8 6 0 0,2
20.10.2020 16:00:00 12,0 10,9 - - 4 2 - - O 993,1 11 0 0,0
20.10.2020 15:00:00 12,3 10,5 - - 9 5 - - NO 993,4 23 0 0,0
20.10.2020 14:00:00 12,6 11,1 - - 5 3 - - NO 993,6 14 0 0,0
20.10.2020 13:00:00 12,3 10,7 - - 4 2 - - ONO 993,7 21 6 0,0
20.10.2020 12:00:00 11,9 10,5 - - 8 4 - - N 994,2 13 12 0,0
20.10.2020 11:00:00 11,1 9,6 - - 8 4 - - WZW 993,9 9 6 0,0
20.10.2020 10:00:00 9,5 8,5 11,0 11,5 9 5 - - O 994,2 10 0 0,0
20.10.2020 09:00:00 9,1 8,1 - - 11 6 - - O 993,9 10 0 0,0
20.10.2020 08:00:00 9,0 7,9 - - 9 5 - - O 994,1 10 0 0,0
20.10.2020 07:00:00 8,9 8,1 - - 11 6 - - O 994,4 9 0 0,4
20.10.2020 06:00:00 8,9 8,2 - - 9 5 - - O 995,1 9 0 0,6
20.10.2020 05:00:00 9,1 8,1 - - 9 5 - - O 995,5 12 0 0,4
20.10.2020 04:00:00 10,0 8,0 - - 9 5 - - ZZO 996,8 25 0 0,0
20.10.2020 03:00:00 9,7 9,0 - - 5 3 - - O 997,4 24 0 0,2
20.10.2020 02:00:00 10,0 9,3 - - 8 4 - - NNO 998,6 28 0 2,4
20.10.2020 01:00:00 10,9 9,0 - - 5 3 - - NO 999,3 14 - 0,4
20.10.2020 00:00:00 11,1 9,0 - - 13 7 - - Z 999,3 35 0 0,2
19.10.2020 23:00:00 11,0 8,9 - - 18 10 - - ZZW 999,9 19 0 0,0
19.10.2020 22:00:00 11,0 8,8 - - 21 11 - - Z 1000,5 17 0 0,0
19.10.2020 21:00:00 11,0 8,7 - - 24 13 48 26 Z 1000,7 16 0 0,2
19.10.2020 20:00:00 9,9 8,7 - - 4 2 - - NNO 1001,6 12 0 0,2
19.10.2020 19:00:00 10,4 8,4 - - 8 4 - - ZZO 1002,3 12 0 0,8
19.10.2020 18:00:00 10,3 8,5 - - 9 5 - - Z 1003,3 11 0 0,4
19.10.2020 17:00:00 10,8 8,4 - - 15 8 - - Z 1003,7 12 0 0,2
19.10.2020 16:00:00 11,5 8,3 - - 18 10 - - Z 1004,6 13 0 0,0
19.10.2020 15:00:00 11,6 8,6 - - 16 9 - - ZZW 1005,7 17 0 0,0
19.10.2020 14:00:00 11,6 9,0 - - 11 6 - - ZZW 1006,6 23 0 0,0
19.10.2020 13:00:00 11,6 9,1 - - 21 11 - - ZZW 1007,5 30 0 0,0
19.10.2020 12:00:00 12,2 9,7 - - 21 11 - - ZZW 1007,7 24 0 0,0
19.10.2020 11:00:00 11,9 9,5 - - 28 15 46 25 ZZW 1008,1 16 0 0,0
19.10.2020 10:00:00 12,4 9,3 11,0 11,7 26 14 48 26 ZW 1008,4 22 0 0,0
19.10.2020 09:00:00 12,1 9,2 - - 29 16 57 31 ZZW 1008,5 18 0 0,0
19.10.2020 08:00:00 11,5 9,2 - - 18 10 - - ZZW 1008,9 26 0 0,2
19.10.2020 07:00:00 11,6 9,4 - - 22 12 - - ZZW 1009,7 21 0 0,2
19.10.2020 06:00:00 11,8 9,3 - - 16 9 - - ZW 1010,6 50 0 0,2
19.10.2020 05:00:00 11,3 9,0 - - 16 9 - - ZZW 1011,4 45 0 0,0
19.10.2020 04:00:00 11,4 9,0 - - 16 9 - - ZZW 1012,3 30 0 0,0
19.10.2020 03:00:00 10,4 8,5 - - 9 5 - - ZW 1013,3 30 0 0,0
19.10.2020 02:00:00 10,7 7,8 - - 13 7 - - ZW 1014,2 35 0 0,0
19.10.2020 01:00:00 10,5 7,3 - - 13 7 - - ZZW 1014,8 50 - 0,0
19.10.2020 00:00:00 10,3 7,0 - - 18 10 - - ZZW 1015,5 50 0 0,0
18.10.2020 23:00:00 9,9 7,0 - - 18 10 - - ZW 1016,2 40 0 0,0
18.10.2020 22:00:00 9,9 7,1 - - 18 10 - - ZZW 1016,7 50 0 0,0
18.10.2020 21:00:00 9,4 6,8 - - 11 6 - - ZW 1017,2 50 0 0,0
18.10.2020 20:00:00 9,4 6,8 - - 8 4 - - WZW 1018,0 45 0 0,0
18.10.2020 19:00:00 9,4 6,9 - - 4 2 - - WZW 1018,5 50 0 0,0
18.10.2020 18:00:00 9,8 6,7 - - 4 2 - - WZW 1018,7 50 0 0,0
18.10.2020 17:00:00 10,0 7,1 - - 8 4 - - ZW 1019,2 50 0 0,0
18.10.2020 16:00:00 9,8 7,7 - - 4 2 - - WNW 1020,2 50 0 0,0
18.10.2020 15:00:00 9,2 6,9 - - 5 3 - - ZW 1021,0 50 0 0,0
18.10.2020 14:00:00 8,9 6,5 - - 0 0 - - N 1021,9 30 0 0,0
18.10.2020 13:00:00 8,4 6,8 - - 4 2 - - N 1022,7 35 0 0,0
18.10.2020 12:00:00 8,3 6,4 - - 2 1 - - NW 1023,3 50 0 0,0
18.10.2020 11:00:00 8,0 6,4 - - 5 3 - - O 1023,9 40 0 0,0
18.10.2020 10:00:00 7,4 6,2 11,0 11,7 5 3 - - O 1024,1 20 0 0,0
18.10.2020 09:00:00 7,2 6,4 - - 8 4 - - O 1024,3 50 0 0,0
18.10.2020 08:00:00 6,8 6,3 - - 2 1 - - OZO 1024,3 50 0 0,0
18.10.2020 07:00:00 7,0 6,5 - - 2 1 - - ONO 1024,5 50 0 0,0
18.10.2020 06:00:00 7,0 6,3 - - 2 1 - - Z 1024,8 29 0 0,0
18.10.2020 05:00:00 7,1 6,5 - - 2 1 - - Z 1025,0 50 0 0,0
18.10.2020 04:00:00 7,2 6,6 - - 4 2 - - ZW 1025,5 28 0 0,0
18.10.2020 03:00:00 7,2 6,8 - - 2 1 - - ZO 1026,0 35 0 0,0
18.10.2020 02:00:00 7,4 6,9 - - 0 0 - - N 1026,4 30 0 0,0
18.10.2020 01:00:00 7,3 6,7 - - 0 0 - - N 1026,3 27 - 0,0
18.10.2020 00:00:00 7,4 6,7 - - 4 2 - - ZW 1026,2 45 0 0,0
17.10.2020 23:00:00 7,7 6,5 - - 4 2 - - OZO 1026,4 16 0 0,0
17.10.2020 22:00:00 7,9 6,7 - - 9 5 - - ONO 1026,4 9 0 0,0
17.10.2020 21:00:00 8,2 7,7 - - 13 7 - - ONO 1026,3 2,3 0 0,2
17.10.2020 20:00:00 8,9 8,1 - - 13 7 - - O 1026,0 6 0 0,0
17.10.2020 19:00:00 9,7 7,3 - - 5 3 - - NO 1025,7 50 0 0,0
17.10.2020 18:00:00 10,0 6,9 - - 9 5 - - NO 1025,5 50 0 0,0
17.10.2020 17:00:00 10,0 7,0 - - 13 7 - - ONO 1025,7 40 6 0,0
17.10.2020 16:00:00 10,0 7,5 - - 15 8 - - ONO 1025,9 50 0 0,0
17.10.2020 15:00:00 9,9 7,9 - - 11 6 - - NO 1026,1 30 0 0,0
17.10.2020 14:00:00 10,1 7,1 - - 15 8 - - ONO 1026,3 50 0 0,0
17.10.2020 13:00:00 9,8 6,6 - - 18 10 - - ONO 1026,6 7 0 0,0
17.10.2020 12:00:00 9,5 6,3 - - 11 6 - - ONO 1026,6 35 0 0,0
17.10.2020 11:00:00 9,3 6,4 - - 11 6 - - NO 1026,4 50 0 0,0
17.10.2020 10:00:00 8,6 5,8 11,0 11,7 9 5 - - NO 1026,6 23 0 0,0
17.10.2020 09:00:00 7,8 5,7 - - 5 3 - - NNO 1026,6 14 0 0,0
17.10.2020 08:00:00 7,3 5,9 - - 2 1 - - NW 1026,6 8 0 0,0
17.10.2020 07:00:00 7,5 5,7 - - 4 2 - - N 1026,4 50 0 0,0
17.10.2020 06:00:00 7,5 5,8 - - 5 3 - - N 1026,4 45 0 0,0
17.10.2020 05:00:00 7,8 5,6 - - 9 5 - - NNO 1026,7 8 0 0,0
17.10.2020 04:00:00 7,9 5,8 - - 11 6 - - NO 1027,2 10 0 0,0
17.10.2020 03:00:00 8,3 5,6 - - 13 7 - - NO 1027,5 14 0 0,0
17.10.2020 02:00:00 8,4 5,6 - - 9 5 - - NNO 1027,7 10 0 0,0
17.10.2020 01:00:00 8,6 5,6 - - 16 9 - - NO 1027,8 29 - 0,0
17.10.2020 00:00:00 8,6 6,0 - - 13 7 - - NNO 1028,2 11 0 0,0
16.10.2020 23:00:00 9,0 6,0 - - 15 8 - - NNO 1028,3 24 0 0,0
16.10.2020 22:00:00 9,3 6,1 - - 13 7 - - NO 1028,4 30 0 0,0
16.10.2020 21:00:00 9,7 6,7 - - 13 7 - - ONO 1028,3 27 0 0,0
16.10.2020 20:00:00 9,6 7,4 - - 8 4 - - NNO 1028,4 13 0 0,0
16.10.2020 19:00:00 9,5 7,1 - - 9 5 - - NO 1028,2 13 0 0,0
16.10.2020 18:00:00 10,0 7,5 - - 13 7 - - NO 1028,1 28 0 0,0
16.10.2020 17:00:00 10,4 7,7 - - 15 8 - - NO 1028,1 30 0 0,0
16.10.2020 16:00:00 10,3 7,2 - - 9 5 - - NNO 1028,4 30 0 0,0
16.10.2020 15:00:00 10,3 6,5 - - 9 5 - - NNO 1028,8 35 0 0,0
16.10.2020 14:00:00 10,0 6,1 - - 8 4 - - N 1029,1 35 0 0,0
16.10.2020 13:00:00 9,8 6,4 - - 8 4 - - N 1029,6 45 0 0,0
16.10.2020 12:00:00 10,1 6,5 - - 4 2 - - N 1029,8 50 0 0,0
16.10.2020 11:00:00 9,1 6,0 - - 4 2 - - NW 1030,2 50 0 0,0
16.10.2020 10:00:00 8,1 5,8 11,0 11,7 4 2 - - W 1030,2 50 0 0,0
16.10.2020 09:00:00 7,3 6,2 - - 2 1 - - WZW 1030,0 50 0 0,0
16.10.2020 08:00:00 7,1 5,9 - - 4 2 - - ZZW 1029,7 40 0 0,0
16.10.2020 07:00:00 7,0 5,9 - - 4 2 - - ZW 1029,6 45 0 0,0
16.10.2020 06:00:00 7,0 6,0 - - 5 3 - - ZZW 1029,6 50 0 0,0
16.10.2020 05:00:00 7,0 5,7 - - 2 1 - - ZW 1029,7 45 0 0,0

tt = temperatuur
td = dauwpunt
tt -20cm = temperatuur -20cm
tt -100cm = temperatuur -100cm
ff = windsnelheid
fx = windstoten
dd = windrichting
ppp = luchtdruk
vv = zicht
sd = Zonneschijnduur
rr = neerslag

Weerstations in de omgeving